Location: ?????? ??????
(44.3742°N, 135.2221°E)
Time: 06:38:46
(UTC+00:00)

Cosmos 1470 Rocket - Pass Details

Date: 19 May 2025
Orbit: 597 x 628 km, 82.5° (Epoch: 15 June)

Event Time Altitude Azimuth Distance (km) Brightness Sun altitude
Rises 16:19:10 0° 343° (NNW) 2,860 7.8 -22.9°
Reaches altitude 10° 16:21:30 10° 335° (NNW) 1,949 6.7 -22.8°
Enters shadow 16:25:04 36° 281° (WNW) 963 4.4 -22.5°
